Portada
METAR-TAF:

METAR-TAF

Aeroports :

Bundaberg, Austràlia

latitud: 24-54-14S, longitud: 152-19-07E, altitud: 33 m

Observació

L'informe es va fer fa 46 minuts, a les 03:00 UTC
Vent 18 kt del Est
Temperatura 30°C
Humitat 52%
Pressió 1014 hPa
Visibilitat 10 km o més

METAR: YBUD 180300Z AUTO 10018KT 9999 // NCD 30/19 Q1014

Hora: 13:46 (03:46 UTC)


TAF: manca

Observacions i pronòstics meteorològics de més de 4000 aeroports (METAR i TAF).

Les estacions disponibles són els punts grocs i vermells al mapa.

Posi el ratolí al punt desitjat per veure el nom de l'estació.

Feu clic per veure les observacions i els pronòstics meteorològics.

Per canviar el mapa: feu clic els botons verds amb una creu de color negre per apropar; al botó verd amb un guió per allunyar la imatge; o en les fletxes verdes per a mapes adjacents.


METAR-TAF: